Regional Weather Roundup
Issued by NWS

Home | Current Version | Previous Version | Graphics & Text | Print | Product List | Glossary On
Versions: 1 2 3 4 5 6 7 8 9 10 11 12 13 14 15 16 17 18 19 20 21 22 23 24 25 26 27 28 29 30 31 32 33 34 35 36 37 38 39 40 41 42 43 44 45 46 47 48 49 50
795
ASUS45 KBOU 150510
RWRCO

WEATHER ROUNDUP FOR COLORADO
NATIONAL WEATHER SERVICE DENVER/BOULDER CO
1000 PM MST THU DEC 14 2017

NOTE: "FAIR" INDICATES FEW OR NO CLOUDS BELOW 12000 FEET WITH NO
SIGNIFICANT WEATHER AND/OR OBSTRUCTIONS TO VISIBILITY.

COZ001>005-013-030-031-150600-
...NORTHWEST COLORADO...

CITY           SKY/WX    TMP DP  RH WIND       PRES   REMARKS
CRAIG          FAIR       4   1  88 CALM      30.37R
HAYDEN         FAIR      18  12  77 E9        30.36S WCI   7
MEEKER         FAIR      15  10  80 E6        30.37R WCI   6
RABBIT EARS PA FAIR      12   9  85 W14G20    30.26R WCI  -3
STEAMBOAT SPGS FAIR      15  10  79 CALM      30.35R
WALDEN         FAIR       1  -4  78 SE6       30.32S WCI -10
$$

COZ006>008-011-150600-
...WEST CENTRAL VALLEYS...

CITY           SKY/WX    TMP DP  RH WIND       PRES   REMARKS
GRAND JUNCTION FAIR      29  14  53 E5        30.36R WCI  24
MONTROSE       FAIR      23  16  74 S8        30.40R WCI  14
EAGLE          FAIR      13   7  77 SE3       30.42R
RIFLE          FAIR      23  11  60 SE3       30.39S
DELTA          FAIR      26  13  59 E6        30.39R WCI  19
NUCLA          FAIR      28  12  50 E9        30.39R WCI  20
$$

COZ017>023-064>068-150600-
...SOUTHWEST COLORADO...

CITY           SKY/WX    TMP DP  RH WIND       PRES   REMARKS
DURANGO        FAIR      24  20  84 CALM      30.25R
CORTEZ         FAIR      29   9  43 S9        30.29R WCI  20
PAGOSA SPRINGS FAIR      21  20  94 CALM      30.27R
TELLURIDE      FAIR      21  10  63 CALM      30.36R
WOLF CREEK PAS FAIR      12  -4  48 NW9G18    30.30R WCI   0
$$

COZ009-010-012-014-032>034-037-058>063-150600-
...CENTRAL COLORADO...

CITY           SKY/WX    TMP DP  RH WIND       PRES   REMARKS
ASPEN          FAIR      15   6  67 SW9       30.35R WCI   3
BUENA VISTA    FAIR      23   6  49 NW29G36   30.25S WCI   5
COPPER MTN     NOT AVBL
BERTHOUD PASS  FAIR       1  -9  60 NW25      30.20S WCI -22
COTTONWOOD PAS FAIR      28  -4  24 SE3G21    30.24S
GUNNISON       FAIR      15   5  64 N7        30.35R WCI   5
KREMMLING      FAIR      12   7  79 CALM      30.38R
LEADVILLE      FAIR       5   1  83 NE8       30.30R WCI  -8
MONARCH PASS   FAIR       9   1  72 SW12      30.36R WCI  -6
SALIDA         FAIR      21   8  56 W6        30.37R WCI  13
SUNLIGHT       FAIR      10   1  67 N3        30.36R
WILKERSON PASS FAIR      14  -6  41 N10G20    30.21S WCI   1
$$

COZ069>075-150600-
...SAN LUIS VALLEY/SANGRE DE CRISTO MOUNTAINS...

CITY           SKY/WX    TMP DP  RH WIND       PRES   REMARKS
ALAMOSA        FOG        5   3  91 S6        30.26R VSB 3/4 WCI  -6
DEL NORTE      FAIR      19   8  63 W9        30.27R WCI   8
LA VETA PASS   FAIR      18  14  86 S17         N/A  WCI   2
SAGUACHE       FAIR      25  10  54 N10       30.28R WCI  15
$$

COZ035-036-038>040-150600-
...NORTHERN COLORADO FRONT RANGE...

CITY           SKY/WX    TMP DP  RH WIND       PRES   REMARKS
DENVER INTL AP FAIR      23  14  68 S9        30.21F WCI  13
DMNS CITY PARK NOT AVBL
AURORA         CLEAR     20  16  83 S10       30.22F WCI   9
FRONT RANGE AP FAIR      19  15  84 S7        30.22F WCI   9
ERIE MUNI ARPT FAIR      26  21  83 S3        30.27F
BOULDER MUN AP FAIR      27  21  80 CALM      30.20F
CENTENNIAL     FAIR      20  17  88 S6        30.21F WCI  12
BROOMFIELD     FAIR      30  23  74 S6        30.21F WCI  24
FORT COLLINS   FAIR      25  21  85 S9        30.21F WCI  15
LONGMONT       FAIR      21  17  84 W3        30.23F
$$

COZ041-046-047-076>085-087-088-150600-
...PIKES PEAK/PALMER DIVIDE AND SOUTHERN FOOTHILLS...

CITY           SKY/WX    TMP DP  RH WIND       PRES   REMARKS
COLO. SPRINGS  MOCLDY    23  20  88 S6        30.26S WCI  16
A. F. ACADEMY  FAIR      13   9  85 N7        30.23S WCI   3
SCHRIEVER AFB  LGT SNOW  25  23  93 W7        30.26S FOG     WCI  17
CHEYENNE MTN   CLOUDY    24  22  90 NW3       30.17F
ELLICOTT         N/A    N/A N/A N/A W7        30.24S
FALCON         FAIR      14  12  92 W8        30.23S WCI   3
FORT CARSON    CLOUDY    28  27  93 S9        30.24F FOG     WCI  20
LIMON          FAIR      14  13  95 CALM      30.23S
MONUMENT HILL  FAIR      10   9  92 SW10      30.22F WCI  -3
CANON CITY     CLOUDY    32  30  93 NW5       30.28S WCI  27
WALSENBURG     FAIR      27  25  93 S8        30.27S WCI  18
TRINIDAD       FAIR      28  25  88 CALM      30.28F
$$

COZ042>045-048>051-090-091-150600-
...NORTHEAST COLORADO...

CITY           SKY/WX    TMP DP  RH WIND       PRES   REMARKS
GREELEY ARPT   FAIR      19  14  81 S5        30.23F WCI  12
AKRON          FAIR      18  14  84 SW9       30.21F WCI   7
BURLINGTON     FAIR      18  14  84 W8        30.24F WCI   8
WRAY           FAIR      21  16  79 W9        30.24R WCI  11
YUMA           FAIR      16  12  86 W7        30.22F WCI   6
STERLING       FAIR      19  14  79 NW3       30.22F
HOLYOKE        FAIR      21  16  79 W9        30.22F WCI  11
FORT MORGAN    FAIR      22  14  71 N5        30.23S WCI  15
$$

COZ086-089-092>099-150600-
...SOUTHEAST COLORADO...

CITY           SKY/WX    TMP DP  RH WIND       PRES   REMARKS
PUEBLO         FAIR      26  23  88 CALM      30.29F
LA JUNTA       FAIR      27  23  85 W10       30.30S WCI  17
LAMAR          FAIR      20  17  88 W6        30.29S WCI  12
SPRINGFIELD      N/A     19  17  92 NW9       30.27F WCI   8
$$




USA.gov is the U.S. government's official web portal to all federal, state and local government web resources and services.